UVSQ-SAT NG

导读

UVSQ-SAT NG是法国发射的一颗科学实验卫星,于2025年3月15日成功进入太空。该卫星由法国凡尔赛大学主导研发,旨在开展大气环境监测与空间天气观测相关科学实验,获取高精度大气参数与空间辐射数据,为气候研究、空间环境预报提供支撑,助力法国在地球观测与空间科学领域的技术验证与科研探索。

基本信息
目录编号:
63251
目录名称:
UVSQ-SAT NG
国际标识:
2025-052AT
轨道中心:
EARTH
卫星名称:
UVSQ-SAT NG
卫星全名:
UVSQ-SAT NG
卫星状态:
在轨 (已飞行539 天)
发射日期:
2025-03-15 UTC
国别 :
法国 (FR)
星等 :
--
轨道信息
数据来源 国际轨道数据
星历时间: 2026-09-05T06:42:22+0800
12小时前
查看轨道信息
半长轴: 6958.35km
偏心率: 0.0002467
轨道倾角: 97.673°
近地点辐角 352.389°
升交点赤经 137.815°
平近点角 7.729°
近地点: 578.496km
远地点: 581.93km
周期: 96.276分钟
每日圈数: 14.956963
详细信息
使用方式:
暂无
2D轨道图
3D轨道图
轨道高度分析图
轨道倾角分析图
轨道综合分析图
查看轨道综合分析图
交会数据列表
事件ID 空间交会对象 最接近时刻(TCA) 交会距离 交会风险概率(CRP) 交会风险指数(CRI) 操作
CDM_260906-133205-215306-325123
OBJECT A (52153)
2026-09-06T
13:32:18+0000
2.758 km
极远距离
1.468813E-6 低风险 0.38